Location: Zagreb
(45.8000°N, 16.0000°E)
Time: 16:47:50
(UTC+01:00)

Tiros 1 despin weight - Pass Details

Date: 08 December 2023
Orbit: 581 x 624 km, 48.2° (Epoch: 02 March)

Event Time Altitude Azimuth Distance (km) Brightness Sun altitude
Rises 18:59:41 0° 270° (W) 2,803 ? -28.4°
Reaches altitude 10° 19:01:59 10° 273° (W) 1,900 ? -28.8°
Enters shadow 19:04:42 36° 288° (WNW) 926 ? -29.3°
